Tracking 28799 objects as of 17-Apr-2024
HD Live streaming from Space Station
objects crossing your sky now

BREEZE-M DEB (TANK)

Track BREEZE-M DEB (TANK) now!
10-day predictions


NORAD ID: 39524
Int'l Code: 2014-007C
Perigee: 239.9 km
Apogee: 20,714.4 km
Inclination: 49.4 °
Period: 362.7 minutes
Semi major axis: 16848 km
RCS: Unknown
Launch date: February 14, 2014
Source: Commonwealth of Independent States (former USSR) (CIS)
Launch site: TYURATAM MISSILE AND SPACE COMPLEX (TTMTR)

Note: This is SATELLITE DEBRIS
Your satellite tracking list
Your tracking list is empty




NASA's NSSDC Master Catalog

Two Line Element Set (TLE):
1 39524U 14007C   24106.12792068  .00024356  00000-0  19188-2 0  9992
2 39524  49.4284  36.2840 6076192 169.7982 212.8188  3.96985719140116
Source of the keplerian elements: AFSPC